BLOCK DM-SL R/B, 44904

Orbit data source: Space-Track

BLOCK DM-SL R/B, 44904 is space debris in GEO originally from a launch on Tue, 24 Dec 2019 UTC launched from the Tyuratam Missile And Space Complex (TTMTR). Debris objects in space refer to the collection of defunct objects orbiting the Earth. Examples of debris include non-operational satellites, rocket bodies, and fragments generated from explosions, collisions, or faulty payload assembly.

Not visible in the next 10 days
Identifier
44904, 2019-095B
Orbit
GEO
Last TLE update
1 day ago
Origin
Manufacturer
RKKE
Mission
Spacecraft
Bus & Motor
BLOK DM2, 11D58M
Mass
2,440 kg wet, 2,440 kg dry
Launch date (UTC)
2019-12-24 (5 years ago)
Launch vehicle
Unknown
Launch site
Tyuratam Missile And Space Complex (TTMTR)
Object type
Payload
Rocket body
Debris
Shape & HBR
Cyl, 7.1 m
Radar Cross Section
26.008 m², Large (>1 m²)

Expand to show TLE details & history

TLE from 1 day ago
0 BLOCK DM-SL R/B
1 44904U 19095B   25128.38091790 -.00000174  00000-0  00000-0 0  9993
2 44904   4.3283  78.7810 0070272 262.0981  97.0330  1.02973039 20222
Epoch: 2025-05-08T09:08Z
Definitive object data (Epoch: 2025-05-08T09:08:31.306Z)
Latitude
-0.00001°
Longitude
75.12608°
Altitude
35,081.851 km
Speed
3.099 km/s
True Right ascension
05h 14m 50s
True Declination
0° 00' 00"
Sunlit
Object was in daylight at TLE epoch
Visualization TLE readout
Latitude
-0.20985°
Longitude
-102.14652°
Altitude
34,991.654 km
Speed
3.106 km/s
Apparent Right ascension
17h 20m 18s
Apparent Declination
-5° 13' 36"
Sunlit
Object is in daylight
Visualization observer readout
Local Sidereal Time
04:34:01
Azimuth
340.246° N
Elevation
-53.778°
Doppler factor
1
Orbital elements
Apogee altitude
35,338.121 km
Perigee altitude
34,755.915 km
Semi-major axis
41,425.155 km
Eccentricity
0.0070272
Inclination
4.3283°
RAAN
78.781°
Arg. of periapsis
262.0981°
True anomaly
97.83131°
Mean anomaly
97.033°
Eccentric anomaly
97.43225°
Mean motion
0.25742 °/min
BSTAR
Unknown
Orbital period
1398.48 mins
Loading historical data...
44904 neighbors
Loading maneuver chart data...
Loading SW <> Apogee altitude chart data...
Loading historical data...
Loading historical data...
Loading historical data...
Loading historical data...
Loading historical data...
Loading historical data...
Loading historical data...
Other satellites on launch #95 in the year 2019 (2019-12-24 UTC)

BLOCK DM-SL R/B Visibility forecast

Observer location: undefined°, undefined°

BLOCK DM-SL R/B is not visible in the next 10 days
Span
Click to sort rows by Start time (UTC) header in descending order
Start Az.
Max El. time (UTC)
Max El. Az.
Max El.
End time (UTC)
End Az.
|